World > North America > United States > Ohio

Proctor, Ohio Regional Weather

Lat: 41.16N, Lon: 81.23W
Wx Zone: OHZ022Web Search
Proctor Weather Warning NWS WEATHER ALERT FOR THE PROCTOR, OH AREA - Issued: 306 PM EDT Wed May 5 2021 Proctor Weather Warning  

Helpful Tip: You can add this page to Bookmarks by pressing the Ctrl key & d key at the same time. Mac users press command & d.

Feedback


°F Click to change Proctor hourly weather to Imperial units.Click to change Proctor hourly weather to Metric units. °C
Proctor Weather Map
UTC Time: 5/6/2021, 04:24
Your Time:

Proctor, OH Regional Weather

Expires:202105060500;;665514
ASUS41 KCLE 060412
RWRCLE
OHIO REGIONAL WEATHER ROUNDUP
NATIONAL WEATHER SERVICE WILMINGTON, OH
1200 AM EDT THU MAY 06 2021

NOTE: "FAIR" INDICATES FEW OR NO CLOUDS BELOW 12,000 FEET WITH NO
SIGNIFICANT WEATHER AND/OR OBSTRUCTIONS TO VISIBILITY.


OHZ009>014-019>023-028>033-038-089-060500-
   NORTHEAST OHIO
  
CITY           SKY/WX    TMP DP  RH WIND       PRES   REMARKS
CLE-HOPKINS    FAIR      41  38  89 CALM      30.10S                  
CLE-LAKEFRONT  FAIR      49  40  71 S3        30.11S                  
CUY CO. ARPT   FAIR      37  36  98 CALM      30.13S                  
LORAIN-ELYRIA  FAIR      41  37  86 CALM      30.13R                  
ASHTABULA      FAIR      38  37  97 W6        30.11S                  
AKRON-CANTON   FAIR      40  36  86 CALM      30.11S                  
WOOSTER          N/A     40  38  93 W3        30.12S                  
MANSFIELD      FAIR      42  38  85 SW3       30.12F                  
YOUNGSTOWN     FAIR      40  38  93 CALM      30.10S FOG              
$$
 

SKY/WX - Weather  TMP - Temperature  DP - Dew Point  RH - Relative Humidity
WIND - Wind Direction/Speed PRES - Barometric Pressure VSB - Visibility
WCI - Wind Chill Index E13G22 Wind - East Wind 13 mph/Gusts of 22 mph